• In Slovakia
  • List of Countries
  • For 7 days
  • Water Temperature
  • Satellite Maps
  • Weather Map
  • Weather Widgets
  • user-avatar
    Login

    Hourly Weather Munich

    Today, 15 August, Wednesday

    Time Temperature Precipitation Wind Pressure Humidity
    00:00 +15°C° 0.1 mm 1 mps 718 mmHg 90%
    01:00 +15°C° 0 mm 2 mps 718 mmHg 92%
    02:00 +15°C° 0.2 mm 2 mps 718 mmHg 93%
    03:00 +15°C° 0.2 mm 1 mps 719 mmHg 93%
    04:00 +15°C° 0.2 mm 1 mps 719 mmHg 94%
    05:00 +15°C° 0.1 mm 1 mps 719 mmHg 93%
    06:00 +16°C° 0.1 mm 1 mps 719 mmHg 92%
    07:00 +18°C° 0 mm 1 mps 719 mmHg 89%
    08:00 +19°C° 0.3 mm 1 mps 719 mmHg 84%
    09:00 +21°C° 0.3 mm 1 mps 719 mmHg 80%
    10:00 +22°C° 0.3 mm 1 mps 720 mmHg 75%
    11:00 +23°C° 0.1 mm 1 mps 720 mmHg 69%
    12:00 +24°C° 0.1 mm 1 mps 719 mmHg 64%
    13:00 +25°C° 0 mm 1 mps 720 mmHg 58%
    14:00 +25°C° 0.1 mm 1 mps 720 mmHg 58%
    15:00 +25°C° 0.1 mm 1 mps 719 mmHg 59%
    16:00 +25°C° 0.1 mm 1 mps 719 mmHg 59%
    17:00 +24°C° 0 mm 1 mps 719 mmHg 65%
    18:00 +22°C° 0 mm 1 mps 719 mmHg 72%
    19:00 +21°C° 0 mm 1 mps 719 mmHg 78%
    20:00 +20°C° 0 mm 1 mps 719 mmHg 81%
    21:00 +19°C° 0 mm 1 mps 719 mmHg 84%
    22:00 +18°C° 0 mm 1 mps 720 mmHg 87%
    23:00 +16°C° 0 mm 1 mps 720 mmHg 89%

    Tomorrow, 16 August, Thursday

    Time Temperature Precipitation Wind Pressure Humidity
    00:00 +16°C° 0 mm 1 mps 720 mmHg 90%
    01:00 +15°C° 0 mm 1 mps 719 mmHg 91%
    02:00 +15°C° 0 mm 1 mps 719 mmHg 91%
    03:00 +15°C° 0 mm 1 mps 719 mmHg 92%
    04:00 +14°C° 0 mm 1 mps 719 mmHg 92%
    05:00 +15°C° 0 mm 1 mps 719 mmHg 89%
    06:00 +16°C° 0 mm 1 mps 719 mmHg 86%
    07:00 +18°C° 0 mm 1 mps 719 mmHg 84%
    08:00 +20°C° 0 mm 1 mps 718 mmHg 76%
    09:00 +21°C° 0 mm 2 mps 718 mmHg 69%
    10:00 +24°C° 0 mm 2 mps 718 mmHg 62%
    11:00 +25°C° 0 mm 2 mps 718 mmHg 60%
    12:00 +26°C° 0 mm 3 mps 718 mmHg 57%
    13:00 +27°C° 0 mm 3 mps 717 mmHg 55%
    14:00 +27°C° 0 mm 3 mps 717 mmHg 56%
    15:00 +27°C° 0 mm 3 mps 717 mmHg 57%
    16:00 +27°C° 0 mm 3 mps 716 mmHg 58%
    17:00 +25°C° 0 mm 2 mps 716 mmHg 66%
    18:00 +23°C° 0 mm 2 mps 716 mmHg 73%
    19:00 +22°C° 0 mm 1 mps 716 mmHg 80%
    20:00 +21°C° 0 mm 1 mps 716 mmHg 83%
    21:00 +20°C° 0 mm 1 mps 716 mmHg 86%
    22:00 +18°C° 0 mm 1 mps 716 mmHg 89%
    23:00 +18°C° 0 mm 1 mps 716 mmHg 90%

    Day after tomorrow, 17 August, Friday

    Time Temperature Precipitation Wind Pressure Humidity
    00:00 +18°C° 0 mm 1 mps 716 mmHg 91%
    01:00 +16°C° 0 mm 1 mps 716 mmHg 91%
    02:00 +16°C° 0 mm 1 mps 716 mmHg 92%
    03:00 +15°C° 0 mm 1 mps 716 mmHg 92%
    04:00 +15°C° 0 mm 1 mps 716 mmHg 92%
    05:00 +16°C° 0 mm 1 mps 716 mmHg 90%
    06:00 +18°C° 0 mm 1 mps 716 mmHg 87%
    07:00 +19°C° 0 mm 1 mps 716 mmHg 85%
    08:00 +21°C° 0 mm 1 mps 716 mmHg 78%
    09:00 +23°C° 0 mm 1 mps 716 mmHg 71%
    10:00 +25°C° 0 mm 1 mps 716 mmHg 64%
    11:00 +26°C° 0 mm 1 mps 716 mmHg 60%
    12:00 +27°C° 0 mm 1 mps 716 mmHg 57%
    13:00 +28°C° 0 mm 1 mps 716 mmHg 54%
    14:00 +28°C° 0.2 mm 1 mps 716 mmHg 55%
    15:00 +28°C° 0.2 mm 1 mps 716 mmHg 57%
    16:00 +28°C° 0.2 mm 1 mps 716 mmHg 58%
    17:00 +26°C° 0.2 mm 1 mps 716 mmHg 64%
    18:00 +24°C° 0.2 mm 1 mps 716 mmHg 70%
    19:00 +23°C° 0.2 mm 1 mps 716 mmHg 76%
    20:00 +22°C° 0.2 mm 1 mps 716 mmHg 78%
    21:00 +21°C° 0.2 mm 1 mps 717 mmHg 80%
    22:00 +19°C° 0.2 mm 2 mps 717 mmHg 83%
    23:00 +19°C° 0 mm 2 mps 717 mmHg 85%

    18 August, Saturday

    Time Temperature Precipitation Wind Pressure Humidity
    00:00 +18°C° 0 mm 2 mps 717 mmHg 88%
    01:00 +18°C° 0 mm 2 mps 717 mmHg 90%
    02:00 +17°C° 0 mm 2 mps 717 mmHg 91%
    03:00 +17°C° 0 mm 2 mps 717 mmHg 93%
    04:00 +17°C° 0 mm 2 mps 717 mmHg 94%
    05:00 +17°C° 0 mm 2 mps 718 mmHg 93%
    06:00 +17°C° 0 mm 3 mps 718 mmHg 92%
    07:00 +18°C° 0 mm 3 mps 718 mmHg 92%
    08:00 +19°C° 0 mm 3 mps 719 mmHg 89%
    09:00 +19°C° 0 mm 2 mps 719 mmHg 87%
    10:00 +20°C° 0 mm 2 mps 719 mmHg 85%
    11:00 +21°C° 0.1 mm 3 mps 719 mmHg 82%
    12:00 +22°C° 0.1 mm 3 mps 719 mmHg 79%
    13:00 +22°C° 0.1 mm 3 mps 719 mmHg 75%
    14:00 +24°C° 0.1 mm 3 mps 719 mmHg 75%
    15:00 +24°C° 0.1 mm 2 mps 719 mmHg 75%
    16:00 +24°C° 0.1 mm 2 mps 719 mmHg 74%
    17:00 +23°C° 0.4 mm 2 mps 719 mmHg 79%
    18:00 +21°C° 0.4 mm 2 mps 719 mmHg 84%
    19:00 +21°C° 0.4 mm 1 mps 720 mmHg 89%
    20:00 +20°C° 0.2 mm 1 mps 720 mmHg 91%
    21:00 +20°C° 0.2 mm 1 mps 720 mmHg 93%
    22:00 +19°C° 0.2 mm 1 mps 720 mmHg 94%
    23:00 +19°C° 0 mm 1 mps 720 mmHg 95%

    19 August, Sunday

    Time Temperature Precipitation Wind Pressure Humidity
    00:00 +18°C° 0 mm 1 mps 720 mmHg 96%
    01:00 +18°C° 0 mm 1 mps 720 mmHg 96%
    02:00 +18°C° 0 mm 1 mps 720 mmHg 96%
    03:00 +16°C° 0 mm 1 mps 720 mmHg 97%
    04:00 +16°C° 0 mm 1 mps 720 mmHg 97%
    05:00 +18°C° 0 mm 1 mps 720 mmHg 96%
    06:00 +16°C° 0 mm 0 mps 720 mmHg 95%
    07:00 +17°C° 0 mm 0 mps 721 mmHg 94%
    08:00 +20°C° 0 mm 1 mps 721 mmHg 88%
    09:00 +22°C° 0 mm 1 mps 721 mmHg 83%
    10:00 +24°C° 0 mm 1 mps 721 mmHg 77%
    11:00 +25°C° 0.1 mm 1 mps 721 mmHg 72%
    12:00 +26°C° 0.1 mm 1 mps 720 mmHg 68%
    13:00 +27°C° 0.1 mm 2 mps 720 mmHg 64%
    14:00 +27°C° 0.2 mm 2 mps 720 mmHg 65%
    15:00 +27°C° 0.2 mm 2 mps 720 mmHg 65%
    16:00 +27°C° 0.2 mm 2 mps 720 mmHg 66%
    17:00 +25°C° 0.6 mm 1 mps 720 mmHg 72%
    18:00 +24°C° 0.6 mm 1 mps 720 mmHg 78%
    19:00 +23°C° 0.6 mm 1 mps 720 mmHg 84%
    20:00 +22°C° 0.4 mm 1 mps 720 mmHg 86%
    21:00 +21°C° 0.4 mm 1 mps 720 mmHg 88%
    22:00 +20°C° 0.4 mm 1 mps 720 mmHg 90%
    23:00 +20°C° 0.1 mm 1 mps 720 mmHg 91%

    20 August, Monday

    Time Temperature Precipitation Wind Pressure Humidity
    00:00 +19°C° 0.1 mm 1 mps 720 mmHg 92%
    01:00 +19°C° 0.1 mm 1 mps 720 mmHg 93%
    02:00 +19°C° 0 mm 1 mps 720 mmHg 93%
    03:00 +18°C° 0 mm 1 mps 720 mmHg 94%
    04:00 +18°C° 0 mm 1 mps 720 mmHg 94%
    05:00 +19°C° 0 mm 1 mps 720 mmHg 93%
    06:00 +19°C° 0 mm 1 mps 720 mmHg 91%
    07:00 +20°C° 0 mm 1 mps 720 mmHg 90%
    08:00 +22°C° 0.1 mm 1 mps 720 mmHg 85%
    09:00 +23°C° 0.1 mm 1 mps 720 mmHg 79%
    10:00 +25°C° 0.1 mm 1 mps 721 mmHg 73%
    11:00 +26°C° 0.7 mm 1 mps 720 mmHg 71%
    12:00 +26°C° 0.7 mm 1 mps 720 mmHg 68%
    13:00 +27°C° 0.7 mm 2 mps 720 mmHg 66%
    14:00 +27°C° 0.3 mm 2 mps 720 mmHg 64%
    15:00 +27°C° 0.3 mm 2 mps 720 mmHg 63%
    16:00 +28°C° 0.3 mm 2 mps 720 mmHg 61%
    17:00 +26°C° 0.2 mm 1 mps 720 mmHg 66%
    18:00 +25°C° 0.2 mm 1 mps 720 mmHg 71%
    19:00 +21°C° 0.2 mm 0 mps 720 mmHg 76%
    20:00 +22°C° 0.3 mm 1 mps 720 mmHg 77%
    21:00 +21°C° 0.3 mm 1 mps 720 mmHg 79%
    22:00 +21°C° 0.3 mm 1 mps 720 mmHg 81%
    23:00 +20°C° 0 mm 1 mps 720 mmHg 82%
    Show more